Weather History for Llano, TX

Change the Weather History Date:

Saturday, February 9, 2013

  Actual Average (KBMQ) Record (KBMQ)
Temperature  
Mean Temperature 58 °F -  
Max Temperature 69 °F 58 °F 84 °F (1999)
Min Temperature 48 °F 39 °F 15 °F (2011)
Degree Days  
Heating Degree Days 6    
Growing Degree Days 8 (Base 50)    
Moisture  
Dew Point 52 °F    
Average Humidity 80    
Maximum Humidity 94    
Minimum Humidity 47    
Precipitation  
Precipitation 0.00 in - - ()
Sea Level Pressure  
Sea Level Pressure 29.96 in    
Wind  
Wind Speed 6 mph (SE)    
Max Wind Speed 13 mph    
Max Gust Speed 20 mph    
Visibility 9 miles    
Events      
Averages and records for this station are not official NWS values.
T = Trace of Precipitation, MM = Missing Value Source: NWS Daily Summary

Daily Weather History Graph

Daily Weather History Graph

Search for Another Location

Airport:

Trip Planner

Search our weather history database for the weather conditions in past years. The results will help you decide how hot, cold, wet, or windy it might be!

Date:

Astronomy

Feb. 09, 2013 Rise Set
Actual Time 7:20 AM CST 6:17 PM CST
Civil Twilight 6:55 AM CST 6:42 PM CST
Nautical Twilight 6:26 AM CST 7:11 PM CST
Astronomical Twilight 5:58 AM CST 7:39 PM CST
Moon 6:33 AM CST (2/9) 5:59 PM CST (2/9)
Length of Visible Light 11h 47m
Length of Day
10h 57m
Waning Crescent, 0% of the Moon is Illuminated
Feb 9
Waning Crescent
Feb 10
New
Feb 17
First Quarter
Feb 25
Full
Mar 4
Last Quarter

Hourly Weather History & Observations

Time (CST) Temp. Dew Point Humidity Pressure Visibility Wind Dir Wind Speed Gust Speed Precip Events Conditions
12:15 AM 51.8 °F 32.0 °F 47% 30.11 in 10.0 mi East 3.5 mph - N/A   Clear
12:35 AM 51.8 °F 32.0 °F 47% 30.12 in 10.0 mi Calm Calm - N/A   Clear
12:55 AM 51.8 °F 32.0 °F 47% 30.13 in 10.0 mi Calm Calm - N/A   Partly Cloudy
1:15 AM 48.2 °F 33.8 °F 58% 30.11 in 10.0 mi Calm Calm - N/A   Scattered Clouds
1:35 AM 48.2 °F 33.8 °F 58% 30.11 in 10.0 mi Calm Calm - N/A   Partly Cloudy
1:55 AM 48.2 °F 32.0 °F 54% 30.10 in 10.0 mi Calm Calm - N/A   Clear
2:15 AM 48.2 °F 32.0 °F 54% 30.10 in 10.0 mi SSE 4.6 mph - N/A   Clear
2:35 AM 50.0 °F 33.8 °F 54% 30.11 in 10.0 mi Calm Calm - N/A   Clear
2:55 AM 50.0 °F 35.6 °F 58% 30.11 in 10.0 mi ESE 4.6 mph - N/A   Partly Cloudy
3:15 AM 51.8 °F 35.6 °F 54% 30.10 in 10.0 mi ESE 8.1 mph - N/A   Partly Cloudy
3:35 AM 51.8 °F 35.6 °F 54% 30.11 in 10.0 mi ESE 5.8 mph - N/A   Clear
3:55 AM 51.8 °F 37.4 °F 58% 30.09 in 10.0 mi SE 9.2 mph - N/A   Partly Cloudy
4:15 AM 51.8 °F 39.2 °F 62% 30.09 in 10.0 mi SE 6.9 mph - N/A   Mostly Cloudy
4:35 AM 51.8 °F 41.0 °F 67% 30.08 in 10.0 mi SE 9.2 mph - N/A   Overcast
4:55 AM 51.8 °F 44.6 °F 76% 30.06 in 10.0 mi SE 5.8 mph - N/A   Scattered Clouds
5:15 AM 51.8 °F 44.6 °F 76% 30.05 in 10.0 mi SE 9.2 mph - N/A   Mostly Cloudy
5:35 AM 51.8 °F 46.4 °F 82% 30.06 in 10.0 mi SE 6.9 mph - N/A   Overcast
5:55 AM 51.8 °F 46.4 °F 82% 30.06 in 10.0 mi SSE 6.9 mph - N/A   Overcast
6:15 AM 51.8 °F 48.2 °F 88% 30.07 in 10.0 mi Calm Calm - N/A   Overcast
6:35 AM 53.6 °F 48.2 °F 82% 30.08 in 10.0 mi SSE 4.6 mph - N/A   Overcast
6:55 AM 53.6 °F 48.2 °F 82% 30.08 in 10.0 mi SSE 5.8 mph - N/A   Overcast
7:15 AM 53.6 °F 48.2 °F 82% 30.08 in 10.0 mi SSE 8.1 mph - N/A   Overcast
7:35 AM 53.6 °F 50.0 °F 88% 30.07 in 10.0 mi SSE 8.1 mph - N/A   Overcast
7:55 AM 53.6 °F 50.0 °F 88% 30.07 in 9.0 mi SSE 6.9 mph - N/A   Overcast
8:15 AM 55.4 °F 50.0 °F 82% 30.06 in 10.0 mi SE 8.1 mph - N/A   Overcast
8:35 AM 55.4 °F 50.0 °F 82% 30.05 in 10.0 mi SE 9.2 mph - N/A   Overcast
8:55 AM 55.4 °F 51.8 °F 88% 30.05 in 10.0 mi SE 9.2 mph - N/A   Overcast
9:15 AM 57.2 °F 51.8 °F 82% 30.05 in 10.0 mi SE 6.9 mph - N/A   Overcast
9:35 AM 57.2 °F 51.8 °F 82% 30.04 in 10.0 mi SSE 10.4 mph - N/A   Overcast
9:55 AM 57.2 °F 51.8 °F 82% 30.04 in 10.0 mi SSE 9.2 mph - N/A   Overcast
10:15 AM 57.2 °F 51.8 °F 82% 30.04 in 10.0 mi SE 9.2 mph - N/A   Overcast
10:35 AM 57.2 °F 51.8 °F 82% 30.03 in 10.0 mi SE 6.9 mph - N/A   Overcast
10:55 AM 57.2 °F 51.8 °F 82% 30.02 in 10.0 mi SSE 9.2 mph - N/A   Overcast
11:15 AM 57.2 °F 51.8 °F 82% 30.01 in 10.0 mi SE 11.5 mph - N/A   Overcast
11:35 AM 57.2 °F 53.6 °F 88% 30.01 in 7.0 mi SSE 12.7 mph 16.1 mph N/A   Overcast
11:55 AM 57.2 °F 53.6 °F 88% 30.00 in 3.0 mi SE 8.1 mph - N/A   Overcast
12:15 PM 57.2 °F 53.6 °F 88% 29.99 in 2.5 mi SSE 10.4 mph - N/A   Overcast
12:35 PM 57.2 °F 55.4 °F 94% 29.98 in 2.0 mi SSE 6.9 mph - N/A   Overcast
12:55 PM 57.2 °F 55.4 °F 94% 29.96 in 3.0 mi SSE 5.8 mph - N/A   Overcast
1:15 PM 57.2 °F 55.4 °F 94% 29.94 in 3.0 mi SSE 9.2 mph - N/A   Overcast
1:55 PM 57.2 °F 55.4 °F 94% 29.91 in 9.0 mi SSE 9.2 mph - N/A   Overcast
2:15 PM 59.0 °F 55.4 °F 88% 29.90 in 10.0 mi SSE 10.4 mph - N/A   Overcast
2:35 PM 59.0 °F 55.4 °F 88% 29.89 in 10.0 mi SSE 12.7 mph - N/A   Overcast
2:55 PM 60.8 °F 55.4 °F 82% 29.88 in 10.0 mi SSE 11.5 mph - N/A   Overcast
3:15 PM 60.8 °F 55.4 °F 82% 29.86 in 10.0 mi SSE 11.5 mph - N/A   Overcast
3:35 PM 60.8 °F 57.2 °F 88% 29.86 in 10.0 mi SE 8.1 mph - N/A   Overcast
3:55 PM 60.8 °F 57.2 °F 88% 29.85 in 10.0 mi SSE 6.9 mph - N/A   Overcast
4:15 PM 60.8 °F 57.2 °F 88% 29.84 in 10.0 mi SE 8.1 mph - N/A   Overcast
4:35 PM 60.8 °F 57.2 °F 88% 29.83 in 10.0 mi SE 9.2 mph - N/A   Overcast
4:55 PM 60.8 °F 57.2 °F 88% 29.82 in 10.0 mi SE 8.1 mph - N/A   Overcast
5:15 PM 60.8 °F 57.2 °F 88% 29.83 in 10.0 mi Calm Calm - N/A   Overcast
5:35 PM 62.6 °F 59.0 °F 88% 29.83 in 10.0 mi SSE 5.8 mph - N/A   Overcast
5:55 PM 62.6 °F 59.0 °F 88% 29.82 in 10.0 mi SE 6.9 mph - N/A   Overcast
6:15 PM 62.6 °F 60.8 °F 94% 29.82 in 10.0 mi SE 6.9 mph - N/A   Overcast
6:35 PM 62.6 °F 60.8 °F 94% 29.82 in 10.0 mi SSE 8.1 mph - N/A   Overcast
6:55 PM 62.6 °F 60.8 °F 94% 29.82 in 10.0 mi SE 5.8 mph - N/A   Overcast
7:15 PM 64.4 °F 60.8 °F 88% 29.82 in 10.0 mi SE 8.1 mph - N/A   Overcast
7:35 PM 64.4 °F 62.6 °F 94% 29.81 in 10.0 mi SSE 8.1 mph - N/A   Overcast
7:55 PM 64.4 °F 62.6 °F 94% 29.81 in 10.0 mi SE 9.2 mph - N/A   Overcast
8:15 PM 64.4 °F 62.6 °F 94% 29.82 in 10.0 mi SSE 6.9 mph - N/A   Overcast
8:35 PM 66.2 °F 62.6 °F 88% 29.82 in 10.0 mi SE 6.9 mph - N/A   Overcast
8:55 PM 66.2 °F 62.6 °F 88% 29.81 in 10.0 mi SSE 9.2 mph - N/A   Overcast
9:15 PM 66.2 °F 62.6 °F 88% 29.81 in 10.0 mi SSE 10.4 mph 18.4 mph N/A   Overcast
9:35 PM 66.2 °F 62.6 °F 88% 29.80 in 10.0 mi SSE 11.5 mph 17.3 mph N/A   Overcast
9:55 PM 68.0 °F 62.6 °F 83% 29.80 in 10.0 mi SSE 11.5 mph 19.6 mph N/A   Overcast
10:15 PM 68.0 °F 62.6 °F 83% 29.81 in 10.0 mi SSE 6.9 mph - N/A   Overcast
10:35 PM 68.0 °F 62.6 °F 83% 29.81 in 10.0 mi South 8.1 mph - N/A   Overcast
10:55 PM 68.0 °F 62.6 °F 83% 29.80 in 10.0 mi SSE 4.6 mph - N/A   Overcast
11:15 PM 69.8 °F 64.4 °F 83% 29.81 in 10.0 mi South 5.8 mph - N/A   Overcast
11:35 PM 69.8 °F 62.6 °F 78% 29.82 in 10.0 mi Calm Calm - N/A   Overcast
11:55 PM 69.8 °F 64.4 °F 83% 29.82 in 10.0 mi SSW 5.8 mph - N/A   Overcast